Provo, UT

11:19 PM MDT on May 27, 2018 (GMT -0600)
Provo Municipal

Weather History for KPVU - July, 2014

Change the Weather History Date:

Thursday, July 3, 2014

  Actual Average Record
Temperature  
Mean Temperature 80 °F -  
Max Temperature 95 °F 87 °F 98 °F (1989)
Min Temperature 64 °F 55 °F 46 °F (1997)
Cooling Degree Days 14    
Growing Degree Days 30 (Base 50)    
Moisture  
Dew Point 46 °F    
Average Humidity 37    
Maximum Humidity 50    
Minimum Humidity 14    
Precipitation  
Precipitation 0.00 in - - ()
Sea Level Pressure  
Sea Level Pressure 30.07 in    
Wind  
Wind Speed 5 mph (ESE)    
Max Wind Speed 12 mph    
Max Gust Speed -    
Visibility 10 miles    
Events      
Averages and records for this station are not official NWS values.
T = Trace of Precipitation, MM = Missing Value Source: NWS Daily Summary

Daily Weather History Graph

Daily Weather History Graph

Search for Another Location

Airport or City:

Astronomy

Jul. 03, 2014 Rise Set
Actual Time 6:02 AM MDT 8:59 PM MDT
Civil Twilight 5:29 AM MDT 9:32 PM MDT
Nautical Twilight 4:47 AM MDT 10:14 PM MDT
Astronomical Twilight 3:59 AM MDT 11:02 PM MDT
Moon 12:05 PM MDT (7/3) No Moon Set
Length of Visible Light 16h 03m
Length of Day
14h 57m
Waxing Crescent, 33% of the Moon is Illuminated
Jul 3
Waxing Crescent
Jul 5
First Quarter
Jul 12
Full
Jul 18
Last Quarter
Jul 26
New

Hourly Weather History & Observations

Time (MDT) Temp. Dew Point Humidity Pressure Visibility Wind Dir Wind Speed Gust Speed Precip Events Conditions
12:15 AM 78.8 °F 41.0 °F 26% 30.06 in 10.0 mi SE 8.1 mph - N/A   Clear
12:35 AM 77.0 °F 41.0 °F 28% 30.06 in 10.0 mi Calm Calm - N/A   Clear
12:55 AM 73.4 °F 44.6 °F 36% 30.07 in 9.0 mi SE 4.6 mph - N/A   Clear
1:15 AM 73.4 °F 44.6 °F 36% 30.07 in 10.0 mi SE 3.5 mph - N/A   Clear
1:35 AM 71.6 °F 44.6 °F 38% 30.07 in 10.0 mi Calm Calm - N/A   Clear
1:55 AM 71.6 °F 42.8 °F 35% 30.07 in 10.0 mi NE 3.5 mph - N/A   Clear
2:15 AM 71.6 °F 41.0 °F 33% 30.06 in 10.0 mi NE 4.6 mph - N/A   Clear
2:35 AM 69.8 °F 42.8 °F 38% 30.06 in 10.0 mi NE 4.6 mph - N/A   Clear
2:55 AM 69.8 °F 44.6 °F 40% 30.05 in 9.0 mi South 4.6 mph - N/A   Clear
3:15 AM 69.8 °F 50.0 °F 49% 30.05 in 10.0 mi SE 6.9 mph - N/A   Clear
3:35 AM 69.8 °F 46.4 °F 43% 30.05 in 6.0 mi South 3.5 mph - N/A   Clear
3:55 AM 69.8 °F 46.4 °F 43% 30.05 in 10.0 mi SE 6.9 mph - N/A   Clear
4:15 AM 66.2 °F 44.6 °F 46% 30.05 in 9.0 mi East 3.5 mph - N/A   Clear
4:35 AM 64.4 °F 44.6 °F 49% 30.05 in 10.0 mi Calm Calm - N/A   Clear
4:55 AM 64.4 °F 44.6 °F 49% 30.05 in 10.0 mi Calm Calm - N/A   Clear
5:15 AM 64.4 °F 41.0 °F 42% 30.05 in 4.0 mi SE 9.2 mph - N/A   Clear
5:35 AM 68.0 °F 44.6 °F 43% 30.06 in 10.0 mi SE 8.1 mph - N/A   Clear
5:55 AM 68.0 °F 44.6 °F 43% 30.07 in 10.0 mi SE 5.8 mph - N/A   Clear
6:15 AM 69.8 °F 44.6 °F 40% 30.08 in 10.0 mi ENE 5.8 mph - N/A   Clear
6:35 AM 68.0 °F 42.8 °F 40% 30.08 in 10.0 mi East 6.9 mph - N/A   Clear
6:51 AM 68.0 °F 44.6 °F 43% 30.08 in 15.0 mi Calm Calm - N/A   Mostly Cloudy
7:47 AM 71.6 °F 44.6 °F 38% 30.09 in 15.0 mi East 9.2 mph - N/A   Mostly Cloudy
8:57 AM 77.0 °F 44.6 °F 32% 30.10 in 15.0 mi SSE 9.2 mph - N/A   Mostly Cloudy
9:47 AM 80.6 °F 48.2 °F 32% 30.12 in 15.0 mi SE 11.5 mph - N/A   Mostly Cloudy
10:51 AM 82.4 °F 46.4 °F 28% 30.11 in 15.0 mi SE 11.5 mph - N/A   Mostly Cloudy
11:48 AM 84.2 °F 44.6 °F 25% 30.12 in 15.0 mi ESE 11.5 mph - N/A   Mostly Cloudy
1:54 PM 91.4 °F 39.2 °F 16% 30.08 in 15.0 mi ESE 11.5 mph - N/A   Mostly Cloudy
4:57 PM 95.0 °F 39.2 °F 14% 30.02 in 15.0 mi ESE 5.8 mph - N/A   Mostly Cloudy
5:48 PM 84.2 °F 48.2 °F 29% 30.04 in 15.0 mi NW 10.4 mph - N/A   Mostly Cloudy
6:56 PM 84.2 °F 42.8 °F 23% 30.04 in 15.0 mi North 10.4 mph - N/A   Mostly Cloudy
7:50 PM 84.2 °F 44.6 °F 25% 30.04 in 15.0 mi ENE 3.5 mph - N/A   Mostly Cloudy
8:55 PM 77.0 °F 51.8 °F 41% 30.05 in 15.0 mi Calm Calm - N/A   Mostly Cloudy
9:15 PM 75.2 °F 48.2 °F 38% 30.05 in 2.0 mi NNE 6.9 mph - N/A   Clear
9:35 PM 75.2 °F 50.0 °F 41% 30.05 in 10.0 mi ENE 3.5 mph - N/A   Clear
9:55 PM 73.4 °F 50.0 °F 44% 30.06 in 10.0 mi ENE 4.6 mph - N/A   Clear
10:15 PM 71.6 °F 48.2 °F 43% 30.07 in 0.5 mi Calm Calm - N/A   Unknown
10:35 PM 73.4 °F 53.6 °F 50% 30.10 in 1.0 mi SSW 9.2 mph - N/A   Clear
10:55 PM 73.4 °F 51.8 °F 47% 30.11 in 1.0 mi South 6.9 mph - N/A   Clear
11:15 PM 71.6 °F 51.8 °F 50% 30.11 in 7.0 mi NNE 10.4 mph - N/A   Clear
11:35 PM 73.4 °F 48.2 °F 41% 30.12 in 10.0 mi ENE 5.8 mph - N/A   Clear
11:55 PM 75.2 °F 46.4 °F 36% 30.12 in 10.0 mi ESE 4.6 mph - N/A   Clear